Regional Weather Roundup
Issued by NWS

Home | Current Version | Previous Version | Graphics & Text | Print | Product List | Glossary Off
Versions: 1 2 3 4 5 6 7 8 9 10 11 12 13 14 15 16 17 18 19 20 21 22 23 24 25 26 27 28 29 30 31 32 33 34 35 36 37 38 39 40 41 42 43 44 45 46 47 48 49 50

000
ASUS43 KBIS 012310
RWRND

NORTH DAKOTA REGIONAL WEATHER ROUNDUP
NATIONAL WEATHER SERVICE BISMARCK ND
600 PM CDT WED JUL 01 2015

NOTE: "FAIR" INDICATES FEW OR NO CLOUDS BELOW 12,000 FEET WITH NO
SIGNIFICANT WEATHER AND/OR OBSTRUCTIONS TO VISIBILITY.


NDZ001>003-009>011-017-020000-
NORTHWEST NORTH DAKOTA

CITY           SKY/WX    TMP DP  RH WIND       PRES   REMARKS
WILLISTON      MOSUNNY   77  57  50 N6        29.97S HAZE
MINOT          PTSUNNY   73  62  68 N3        29.94F
MINOT AFB      PTSUNNY   75  69  79 VRB3      29.93F
$$

NDZ018>021-031>035-040>046-020000-
SOUTHWEST NORTH DAKOTA

CITY           SKY/WX    TMP DP  RH WIND       PRES   REMARKS
BISMARCK       PTSUNNY   77  63  61 CALM      29.94S
DICKINSON      SUNNY     75  59  57 CALM      29.97F
GARRISON         N/A     75  63  66 NW5       29.95S
HETTINGER ARPT MOSUNNY   74  61  63 VRB5      29.99S
$$

NDZ004>008-012>016-024-026-027-054-020000-
NORTHEAST NORTH DAKOTA

CITY           SKY/WX    TMP DP  RH WIND       PRES   REMARKS
GRAND FORKS    MOSUNNY   77  61  57 SW7       29.93S
GRND FRKS AFB  SUNNY     78  60  53 S6        29.94F
DEVILS LAKE    SUNNY     75  57  53 E7        29.93F
$$

NDZ022-023-025-028>030-036>039-047>053-020000-
SOUTHEAST NORTH DAKOTA

CITY           SKY/WX    TMP DP  RH WIND       PRES   REMARKS
FARGO          SUNNY     74  59  59 S12       29.95S
JAMESTOWN      PTSUNNY   74  63  68 SE9       29.94F
$$



USA.gov is the U.S. government's official web portal to all federal, state and local government web resources and services.